Location: B?lite?ti
(46.2833°N, 22.7333°E)
Time: 04:35:00
(UTC+00:00)

Cosmos 1844 - Pass Details

Date: 24 January 2021
Orbit: 821 x 869 km, 70.9° (Epoch: 26 February)

Event Time Altitude Azimuth Distance (km) Brightness Sun altitude
Rises 16:50:41 0° 212° (SSW) 3,377 7.5 -15.2°
Reaches altitude 10° 16:53:07 10° 214° (SW) 2,454 6.8 -15.6°
Maximum altitude 16:58:45 71° 299° (WNW) 900 4.0 -16.6°
Drops below altitude 10° 17:04:30 10° 23° (NNE) 2,502 5.8 -17.6°
Enters shadow 17:04:53 - 24° (NNE) 2,648 6.0 -17.6°
